| time (UTC) | temp F | wind direction | speed MPH | gust MPH | rain 1hr in | rain 24hr in | rain mn in | humidity % | barometer mb |
| 20260503215516 | 70 | 260 | 5.0 | 8.0 | 0.00 | 0.02 | 0.00 | 50 | 1016.4 |
| 20260503214521 | 70 | 262 | 7.0 | 9.0 | 0.00 | 0.02 | 0.00 | 49 | 1016.4 |
| 20260503213525 | 70 | 271 | 7.0 | 9.0 | 0.00 | 0.02 | 0.00 | 48 | 1016.4 |
| 20260503212529 | 70 | 258 | 6.0 | 8.0 | 0.00 | 0.02 | 0.00 | 48 | 1016.4 |
| 20260503211516 | 70 | 247 | 5.0 | 9.0 | 0.00 | 0.02 | 0.00 | 48 | 1016.3 |
| 20260503210520 | 69 | 241 | 5.0 | 8.0 | 0.00 | 0.02 | 0.00 | 49 | 1016.4 |
| 20260503205525 | 68 | 225 | 5.0 | 8.0 | 0.00 | 0.02 | 0.00 | 50 | 1016.5 |
| 20260503204529 | 70 | 246 | 6.0 | 8.0 | 0.00 | 0.02 | 0.00 | 48 | 1016.7 |
| 20260503203515 | 70 | 247 | 6.0 | 9.0 | 0.00 | 0.02 | 0.00 | 48 | 1016.7 |
| 20260503202519 | 70 | 264 | 5.0 | 7.0 | 0.00 | 0.02 | 0.00 | 49 | 1016.7 |
| 20260503201524 | 70 | 260 | 6.0 | 9.0 | 0.00 | 0.02 | 0.00 | 48 | 1016.7 |
| 20260503200529 | 68 | 263 | 6.0 | 8.0 | 0.00 | 0.02 | 0.00 | 48 | 1016.8 |
| 20260503195515 | 70 | 249 | 5.0 | 7.0 | 0.00 | 0.02 | 0.00 | 46 | 1016.8 |
| 20260503194519 | 70 | 305 | 4.0 | 5.0 | 0.00 | 0.02 | 0.00 | 48 | 1016.9 |
| 20260503193524 | 70 | 241 | 6.0 | 9.0 | 0.00 | 0.02 | 0.00 | 46 | 1016.9 |
| 20260503192528 | 69 | 289 | 4.0 | 6.0 | 0.00 | 0.02 | 0.00 | 48 | 1017.1 |
| 20260503191552 | 68 | 263 | 2.0 | 5.0 | 0.00 | 0.02 | 0.00 | 49 | 1017.2 |
| 20260503190519 | 69 | 330 | 3.0 | 6.0 | 0.00 | 0.02 | 0.00 | 49 | 1017.2 |
| 20260503185544 | 66 | 241 | 3.0 | 6.0 | 0.00 | 0.02 | 0.00 | 52 | 1017.3 |
| 20260503184548 | 66 | 281 | 3.0 | 6.0 | 0.00 | 0.02 | 0.00 | 53 | 1017.4 |
| 20260503183533 | 66 | 290 | 3.0 | 6.0 | 0.00 | 0.02 | 0.00 | 54 | 1017.5 |
| 20260503182519 | 65 | 270 | 3.0 | 5.0 | 0.00 | 0.02 | 0.00 | 56 | 1017.5 |
| 20260503181524 | 65 | 342 | 4.0 | 6.0 | 0.00 | 0.02 | 0.00 | 57 | 1017.6 |
| 20260503180529 | 64 | 250 | 4.0 | 7.0 | 0.00 | 0.02 | 0.00 | 59 | 1017.7 |
| 20260503175535 | 62 | 267 | 3.0 | 4.0 | 0.00 | 0.02 | 0.00 | 66 | 1017.7 |
| 20260503174519 | 60 | 301 | 4.0 | 7.0 | 0.00 | 0.02 | 0.00 | 69 | 1017.8 |
| 20260503173544 | 59 | 256 | 4.0 | 5.0 | 0.00 | 0.02 | 0.00 | 72 | 1017.7 |
| 20260503172522 | 59 | 264 | 4.0 | 7.0 | 0.00 | 0.02 | 0.00 | 75 | 1017.7 |
| 20260503171515 | 59 | 269 | 4.0 | 6.0 | 0.00 | 0.02 | 0.00 | 73 | 1017.6 |
| 20260503170519 | 60 | 290 | 4.0 | 5.0 | 0.00 | 0.02 | 0.00 | 73 | 1017.4 |
| 20260503150519 | 56 | 0.0 | 0.0 | 0.00 | 0.02 | 0.00 | 90 | 1016.7 | |
| 20260503130519 | 53 | 0.0 | 0.0 | 0.00 | 0.02 | 0.00 | 97 | 1015.7 | |
| 20260503110520 | 52 | 0.0 | 0.0 | 0.00 | 0.02 | 0.00 | 99 | 1015.5 | |
| 20260503081525 | 53 | 0.0 | 0.0 | 0.00 | 0.02 | 0.00 | 99 | 1016.0 | |
| 20260503080530 | 53 | 0.0 | 0.0 | 0.00 | 0.01 | 0.00 | 99 | 1016.1 | |
| 20260503072530 | 53 | 0.0 | 0.0 | 0.00 | 0.01 | 0.00 | 99 | 1015.9 | |
| 20260503071516 | 52 | 0.0 | 0.0 | 0.00 | 0.01 | 0.00 | 99 | 1015.8 | |
| 20260503070520 | 52 | 94 | 2.0 | 3.0 | 0.00 | 0.01 | 0.00 | 99 | 1015.8 |
| 20260503054520 | 49 | 0.0 | 0.0 | 0.00 | 0.01 | 0.01 | 99 | 1015.5 | |
| 20260503053524 | 48 | 0.0 | 0.0 | 0.00 | 0.01 | 0.01 | 99 | 1015.4 | |
| 20260503052609 | 48 | 330 | 0.0 | 1.0 | 0.00 | 0.01 | 0.01 | 99 | 1015.3 |
| 20260503051515 | 48 | 0.0 | 0.0 | 0.00 | 0.01 | 0.01 | 97 | 1015.3 | |
| 20260503050539 | 48 | 0.0 | 0.0 | 0.00 | 0.01 | 0.01 | 95 | 1015.2 | |
| 20260503045524 | 49 | 0.0 | 0.0 | 0.00 | 0.01 | 0.01 | 94 | 1015.0 | |
| 20260503044528 | 49 | 0.0 | 0.0 | 0.00 | 0.01 | 0.01 | 94 | 1015.1 | |
| 20260503043527 | 50 | 0.0 | 0.0 | 0.00 | 0.01 | 0.01 | 94 | 1015.0 | |
| 20260503042519 | 50 | 0.0 | 0.0 | 0.00 | 0.01 | 0.01 | 94 | 1015.0 | |
| 20260503041544 | 51 | 0.0 | 0.0 | 0.00 | 0.01 | 0.01 | 93 | 1015.0 | |
| 20260503040522 | 51 | 0.0 | 0.0 | 0.00 | 0.01 | 0.01 | 93 | 1015.0 | |
| 20260503035520 | 52 | 0.0 | 0.0 | 0.01 | 0.01 | 0.01 | 93 | 1014.8 | |
| 20260503034519 | 52 | 0.0 | 0.0 | 0.01 | 0.01 | 0.01 | 93 | 1014.8 | |
| 20260503033517 | 53 | 0.0 | 0.0 | 0.01 | 0.01 | 0.01 | 92 | 1014.8 | |
| 20260503032516 | 54 | 326 | 0.0 | 2.0 | 0.01 | 0.01 | 0.01 | 91 | 1014.8 |
| 20260503031519 | 54 | 257 | 1.0 | 2.0 | 0.01 | 0.01 | 0.01 | 89 | 1014.8 |
| 20260503030524 | 55 | 266 | 2.0 | 2.0 | 0.01 | 0.01 | 0.01 | 88 | 1014.5 |
| 20260503025528 | 55 | 256 | 2.0 | 3.0 | 0.00 | 0.00 | 0.00 | 86 | 1014.4 |
| 20260503024553 | 56 | 268 | 2.0 | 4.0 | 0.00 | 0.00 | 0.00 | 83 | 1014.2 |
| 20260503023518 | 58 | 264 | 3.0 | 4.0 | 0.00 | 0.00 | 0.00 | 79 | 1014.2 |
| 20260503022543 | 59 | 267 | 5.0 | 7.0 | 0.00 | 0.00 | 0.00 | 76 | 1014.2 |
| 20260503021528 | 60 | 247 | 4.0 | 5.0 | 0.00 | 0.00 | 0.00 | 75 | 1014.2 |
| 20260503020533 | 61 | 294 | 3.0 | 4.0 | 0.00 | 0.00 | 0.00 | 74 | 1014.2 |
| 20260503015519 | 62 | 271 | 3.0 | 4.0 | 0.00 | 0.00 | 0.00 | 71 | 1014.2 |
| 20260503014604 | 62 | 251 | 3.0 | 6.0 | 0.00 | 0.00 | 0.00 | 71 | 1014.2 |
| 20260503013527 | 64 | 255 | 4.0 | 6.0 | 0.00 | 0.00 | 0.00 | 66 | 1014.2 |
| 20260503012532 | 65 | 286 | 4.0 | 5.0 | 0.00 | 0.00 | 0.00 | 65 | 1014.2 |
| 20260503011539 | 65 | 237 | 4.0 | 6.0 | 0.00 | 0.00 | 0.00 | 65 | 1014.2 |
| 20260503010523 | 66 | 269 | 4.0 | 6.0 | 0.00 | 0.00 | 0.00 | 63 | 1014.2 |
| 20260503005527 | 66 | 258 | 4.0 | 6.0 | 0.00 | 0.00 | 0.00 | 64 | 1014.4 |
| 20260503004532 | 67 | 263 | 5.0 | 7.0 | 0.00 | 0.00 | 0.00 | 63 | 1014.4 |
| 20260503003518 | 68 | 263 | 5.0 | 7.0 | 0.00 | 0.00 | 0.00 | 62 | 1014.3 |
| 20260503002523 | 68 | 265 | 4.0 | 6.0 | 0.00 | 0.00 | 0.00 | 61 | 1014.2 |
| 20260503001527 | 68 | 265 | 4.0 | 6.0 | 0.00 | 0.00 | 0.00 | 61 | 1014.2 |
| 20260503000612 | 68 | 254 | 5.0 | 8.0 | 0.00 | 0.00 | 0.00 | 61 | 1014.3 |
| 20260502235518 | 70 | 273 | 5.0 | 7.0 | 0.00 | 0.00 | 0.00 | 59 | 1014.3 |
| 20260502234522 | 69 | 261 | 4.0 | 6.0 | 0.00 | 0.00 | 0.00 | 59 | 1014.3 |
| 20260502233527 | 70 | 250 | 5.0 | 7.0 | 0.00 | 0.00 | 0.00 | 58 | 1014.4 |
| 20260502232525 | 69 | 252 | 4.0 | 8.0 | 0.00 | 0.00 | 0.00 | 60 | 1014.5 |
| 20260502231558 | 70 | 265 | 4.0 | 6.0 | 0.00 | 0.00 | 0.00 | 59 | 1014.7 |
| 20260502230522 | 70 | 266 | 4.0 | 6.0 | 0.00 | 0.00 | 0.00 | 58 | 1014.8 |
| 20260502225520 | 71 | 257 | 4.0 | 7.0 | 0.00 | 0.00 | 0.00 | 58 | 1014.9 |
| 20260502224519 | 70 | 261 | 3.0 | 4.0 | 0.00 | 0.00 | 0.00 | 60 | 1015.0 |
| 20260502223532 | 71 | 246 | 5.0 | 7.0 | 0.00 | 0.00 | 0.00 | 58 | 1015.3 |
| 20260502222519 | 69 | 247 | 3.0 | 6.0 | 0.00 | 0.00 | 0.00 | 60 | 1015.4 |
| 20260502221523 | 72 | 258 | 5.0 | 7.0 | 0.00 | 0.00 | 0.00 | 58 | 1015.5 |
| 20260502220609 | 72 | 264 | 4.0 | 7.0 | 0.00 | 0.00 | 0.00 | 57 | 1015.8 |